Wind_Speed
22 25 27 27 26 24 24 25 25 26 27 26 26 27 27 26 25 24 26 29 31 32 34 35 34 33 33 34 35 35 34 34 34 35 36 35 34 34 33 34 33 33 32 29 26 23 21 23 27 29 31 29 29 29 29 27 25 23 22 20 19 17 16
17 19 22 26 28 25 23 25 27 27 27 26 25 25 26 27 27 26 26 29 32 32 34 35 34 33 32 32 32 34 35 36 36 37 38 39 38 36 35 34 34 34 33 31 29 27 24 24 25 27 28 30 31 31 30 30 28 25 24 22 21 20 18
16 17 19 24 28 27 25 25 28 29 28 27 25 24 26 27 28 28 27 29 32 34 34 35 35 35 33 32 31 32 34 35 37 38 39 40 39 37 36 35 34 34 34 33 31 30 27 25 25 25 24 26 29 28 27 27 26 24 24 23 23 22 20
17 18 19 23 27 30 29 28 29 29 29 28 27 27 27 28 29 30 28 28 31 34 35 35 35 35 35 33 31 31 33 34 35 36 37 38 38 37 37 37 35 34 35 35 34 31 29 27 27 26 24 23 25 24 21 21 21 21 22 23 23 23 21
16 18 19 21 24 29 31 30 31 31 31 31 30 30 31 29 29 31 31 31 31 33 35 37 37 36 35 34 33 32 32 33 34 35 37 37 38 38 39 40 39 37 37 37 36 33 31 29 26 26 24 22 23 23 19 19 20 20 21 22 23 23 22
15 17 18 19 20 24 27 29 31 32 32 33 32 32 32 31 30 31 32 33 33 34 35 35 35 35 35 35 34 33 32 32 32 34 37 39 40 41 41 41 41 41 40 38 37 36 34 31 28 26 24 23 24 22 18 19 20 20 21 22 22 22 22
14 16 17 18 18 20 24 27 29 31 31 32 33 32 30 30 30 31 32 34 34 34 34 32 31 32 34 35 36 34 32 31 31 33 37 40 41 43 43 42 42 43 42 39 38 38 36 34 33 29 25 25 25 23 21 21 21 22 23 22 21 21 22
12 14 16 17 17 19 22 25 26 28 29 30 32 33 32 30 31 31 33 34 34 35 35 32 31 32 32 33 35 35 34 32 31 32 35 38 40 41 42 43 43 44 44 40 38 39 38 37 37 34 28 26 27 27 26 25 25 25 24 21 20 21 21
13 13 14 16 17 18 20 23 24 24 26 28 30 33 34 33 32 33 34 34 34 36 37 34 32 31 30 31 33 34 35 34 33 32 33 35 38 38 39 41 43 45 46 43 39 39 40 39 39 38 34 30 29 30 29 28 29 28 25 23 23 21 20
14 14 14 13 13 15 18 20 22 23 24 25 27 30 33 33 33 33 34 34 34 35 33 31 31 30 29 32 35 35 35 35 35 35 34 34 36 37 38 39 40 43 46 46 43 40 40 41 41 40 39 36 32 31 32 31 32 30 25 23 23 21 19
15 15 15 14 14 14 16 17 19 21 22 23 24 26 29 31 32 33 33 34 35 34 30 29 31 30 30 33 37 38 38 36 36 37 37 36 35 37 38 39 39 40 43 46 47 44 40 40 41 42 42 40 37 35 34 33 34 32 26 23 23 21 19
11 12 14 14 14 15 16 17 18 19 20 22 23 25 26 27 30 32 33 34 35 35 33 32 32 32 32 33 36 39 40 40 39 39 39 39 36 36 38 39 39 40 40 42 45 46 44 40 40 41 42 42 42 40 37 35 36 34 29 25 22 20 19
6 8 10 9 11 12 13 14 15 15 16 17 19 22 25 26 27 29 31 32 34 35 35 36 35 33 33 32 34 37 39 41 43 42 40 41 39 37 38 38 40 40 40 41 42 44 46 44 41 40 40 40 42 42 39 37 38 38 32 26 22 20 19
8 9 10 9 7 7 8 8 9 10 11 12 13 15 19 23 26 28 29 30 30 31 33 35 35 34 32 31 32 36 39 42 46 44 41 42 43 41 39 38 40 40 40 41 42 42 44 45 43 41 40 40 41 41 40 39 40 41 37 30 26 23 20
11 11 11 10 7 4 4 5 6 9 11 11 12 13 15 18 22 27 29 30 30 30 31 32 33 34 33 32 32 36 40 44 47 45 42 43 44 44 42 40 39 40 41 42 43 43 43 43 44 44 42 42 43 42 41 41 41 41 40 35 29 25 23
14 14 13 12 10 7 5 4 5 8 9 11 13 13 12 13 16 20 24 27 29 30 28 27 30 33 33 32 33 36 39 42 45 45 43 43 45 45 44 43 42 40 41 43 43 43 44 43 44 45 44 43 44 43 42 42 41 42 41 37 32 28 26
14 15 14 14 13 11 8 6 5 7 7 8 10 9 8 9 12 16 20 22 25 27 25 23 26 29 29 29 31 34 37 40 43 44 43 43 45 45 45 46 46 43 43 44 44 43 44 44 44 45 45 44 44 44 43 42 42 42 41 39 35 30 28
13 13 13 12 12 13 11 9 7 7 8 7 7 6 7 8 11 14 18 20 23 25 26 24 24 26 27 27 28 32 35 38 41 44 43 43 45 46 46 46 47 47 46 46 46 44 44 44 45 45 45 45 45 44 44 44 44 43 42 41 37 32 29
12 11 11 10 10 12 12 12 11 9 9 9 8 7 7 8 10 12 15 18 21 24 26 27 26 26 27 28 30 33 35 37 39 42 44 44 45 46 47 48 48 48 48 48 47 46 45 45 45 46 46 47 46 44 44 46 46 45 44 42 39 36 32
10 10 10 9 9 9 10 11 12 11 11 10 8 8 9 9 10 12 14 15 18 21 24 27 28 27 27 29 32 34 36 37 38 41 44 45 45 45 46 47 48 48 49 50 49 48 47 46 46 47 47 47 47 46 45 46 46 46 46 44 42 40 36
10 10 9 8 9 9 9 9 10 11 11 10 8 8 9 9 10 12 14 15 16 18 21 26 28 28 27 28 30 32 33 34 36 39 41 42 42 43 44 45 47 47 48 50 51 50 49 48 47 48 48 48 48 47 47 47 46 46 47 46 45 43 39
11 10 8 7 7 8 9 9 9 10 11 9 8 8 9 9 10 12 14 15 15 16 19 22 25 27 28 28 30 32 32 33 35 37 40 41 42 43 44 44 46 45 46 48 50 50 50 49 48 49 49 49 49 49 48 48 47 47 47 47 47 45 42
10 10 7 5 6 8 8 8 10 11 11 10 9 9 11 12 12 12 13 14 15 15 17 19 21 24 27 29 32 35 36 37 39 41 43 44 45 46 46 46 46 45 44 45 47 48 48 48 49 49 49 49 50 50 49 48 48 48 47 47 48 47 45
8 8 7 6 6 8 8 8 9 11 12 12 11 10 11 13 14 14 15 15 16 16 16 17 18 21 25 28 31 35 36 38 39 41 44 46 46 48 49 49 49 47 45 45 45 44 44 45 47 49 50 50 50 50 49 48 48 48 47 47 48 48 47
6 7 8 7 6 7 9 9 9 10 11 12 12 12 12 13 15 16 16 17 18 18 18 18 18 20 23 25 29 33 34 35 37 39 42 44 45 46 48 50 50 50 48 48 47 45 43 43 44 47 49 50 50 51 51 50 49 48 47 48 48 48 49
5 6 8 9 8 7 8 8 9 9 9 9 10 11 12 13 14 15 17 18 20 21 21 21 20 21 22 24 26 30 33 35 36 38 40 41 42 43 45 46 48 50 49 49 48 47 45 43 43 44 47 49 50 51 52 51 51 50 49 49 49 50 49
8 9 9 10 10 9 8 7 6 7 7 7 8 9 10 12 12 13 14 16 19 21 22 23 22 22 23 23 24 26 30 33 35 37 38 39 41 42 43 44 46 48 48 48 48 48 46 45 44 44 45 47 49 51 52 52 52 52 51 51 51 51 50
9 11 12 12 12 10 8 7 6 6 6 6 6 6 6 8 10 11 12 12 15 18 19 21 23 23 23 23 23 23 26 28 32 35 37 38 41 43 45 45 45 46 47 48 48 47 47 46 46 45 44 44 46 48 52 54 54 54 54 53 53 53 52
11 11 11 11 10 9 7 7 9 8 7 5 4 4 3 4 7 10 11 11 12 13 14 15 17 19 20 21 21 23 25 27 29 32 34 36 39 41 42 43 43 45 47 49 49 47 46 45 44 42 41 41 41 43 46 49 52 54 56 56 55 54 54
11 10 9 8 7 7 7 8 10 10 9 7 5 5 4 5 7 8 10 11 11 12 12 10 11 13 14 16 18 21 24 27 28 28 30 32 35 37 37 38 41 44 47 50 48 45 43 43 41 40 39 38 38 40 41 42 45 49 54 57 58 57 55
11 9 7 6 7 7 6 7 10 11 10 9 8 7 6 6 6 8 9 9 9 11 10 9 9 10 10 11 14 17 21 24 27 28 29 30 32 36 38 40 42 44 47 48 47 44 43 41 40 40 39 37 37 39 40 39 41 44 47 52 56 58 57
12 10 6 5 6 7 7 7 9 10 10 10 10 9 8 7 6 7 7 8 8 9 9 9 10 11 11 11 13 15 18 21 24 26 28 29 30 32 35 38 41 42 44 45 44 43 44 43 42 41 40 39 39 39 38 38 40 41 42 45 49 52 54
13 12 8 5 5 7 8 8 9 10 10 11 11 13 13 12 11 10 9 10 11 11 11 10 10 11 12 13 15 16 17 20 21 23 24 26 28 29 30 32 35 38 41 42 42 43 44 45 46 45 41 40 41 39 36 36 38 39 40 42 44 46 50
13 12 10 7 6 7 8 9 9 10 10 10 10 12 13 15 15 13 12 12 12 13 14 14 13 13 14 15 16 16 17 18 20 22 25 26 27 28 29 29 30 33 36 39 42 44 45 46 48 48 45 43 43 41 38 39 40 39 39 40 41 43 47
12 11 10 9 8 8 8 8 9 11 11 11 10 9 9 11 12 12 11 11 11 12 13 15 16 16 17 17 18 18 17 16 17 21 26 29 30 30 30 29 29 30 32 34 36 41 45 48 50 51 50 47 46 45 44 45 46 43 40 39 39 40 43
12 11 10 10 10 9 8 8 9 11 12 12 12 12 11 11 11 11 11 10 11 12 12 13 15 16 18 20 22 22 21 19 18 20 24 29 31 32 32 31 30 29 29 30 31 35 40 45 49 50 49 47 46 45 45 47 49 48 44 41 40 39 40
13 11 10 10 9 9 9 9 10 11 13 14 14 14 14 14 14 14 14 13 13 13 14 14 14 15 17 19 22 24 25 25 24 24 25 27 30 33 34 34 33 31 30 30 31 32 35 40 44 46 45 44 42 42 44 47 49 49 47 45 43 41 39
Wind_Direction
262 250 240 240 240 236 230 224 223 225 224 221 222 225 228 230 232 234 236 234 233 234 235 235 234 231 231 234 237 238 236 234 234 235 234 235 238 237 233 234 238 241 246 250 252 252 251 245 240 236 238 240 244 249 253 256 259 259 259 260 262 263 260
264 253 242 238 234 231 228 223 223 226 227 223 221 225 229 231 232 235 237 235 232 232 234 235 236 234 232 233 236 237 238 236 234 235 236 235 238 240 237 234 234 236 240 246 249 249 250 250 246 241 238 237 240 244 248 251 255 257 257 258 260 262 261
263 252 244 237 230 228 229 228 228 231 231 228 225 227 231 232 232 233 236 237 235 234 234 236 237 236 235 233 235 237 238 238 237 236 235 234 237 243 243 238 235 234 236 239 241 241 242 245 246 247 246 241 241 245 247 247 250 253 255 256 256 258 258
262 252 246 239 230 228 230 230 231 234 234 234 234 234 234 233 232 231 233 235 235 235 236 236 236 237 237 234 234 236 238 239 239 238 235 233 237 244 246 245 242 239 237 236 237 238 240 242 243 247 249 247 249 251 250 250 251 252 253 254 254 254 255
266 256 247 241 233 231 234 234 232 232 233 234 235 237 236 234 232 232 233 233 233 234 236 236 236 237 237 235 235 236 238 241 242 240 238 236 238 242 245 245 246 245 242 240 240 242 244 244 243 247 250 250 251 249 248 249 250 250 251 250 250 251 252
270 260 251 243 237 234 236 235 233 232 233 234 233 234 236 235 233 233 235 235 231 231 234 235 237 238 238 238 238 239 240 241 242 242 240 239 239 241 243 244 245 246 245 243 243 246 248 245 241 246 250 251 253 253 252 250 249 250 250 248 247 247 248
274 265 258 250 242 239 239 238 236 235 235 235 234 234 235 235 235 235 237 237 233 232 233 235 238 240 241 242 242 242 242 242 243 242 241 240 241 242 243 244 245 245 245 245 245 248 250 245 240 242 246 251 256 258 257 255 253 251 249 246 245 244 244
280 270 265 259 249 243 242 242 242 240 237 237 238 240 238 235 235 237 238 239 238 237 235 235 237 238 240 244 245 244 243 243 243 243 241 240 239 240 242 243 245 246 244 244 245 247 249 247 244 243 243 247 254 255 255 255 254 251 249 249 248 245 244
281 274 269 266 259 251 248 247 247 245 242 242 243 243 241 239 237 237 238 239 240 240 238 237 239 240 240 245 247 247 247 245 244 244 244 242 238 237 240 243 245 246 243 241 243 245 247 248 248 246 244 243 248 252 253 253 252 252 251 249 248 247 246
279 279 279 277 271 261 255 255 254 252 250 248 247 244 242 242 242 240 240 240 241 243 244 246 247 248 247 247 249 250 251 249 247 247 248 248 244 240 241 243 244 246 244 240 241 243 245 246 247 247 246 243 243 249 252 251 253 254 254 252 251 250 248
278 287 291 291 287 276 266 263 261 259 256 254 252 249 247 247 246 244 242 241 241 244 247 249 249 248 248 250 251 251 252 251 250 248 248 249 249 245 243 244 245 247 246 243 242 242 243 245 245 246 247 245 241 245 250 252 255 258 258 257 257 255 253
286 300 300 293 286 281 277 271 265 262 260 258 256 254 252 251 248 245 244 243 244 245 247 249 248 245 245 249 253 252 251 251 251 250 248 247 248 248 246 246 247 247 248 248 246 244 244 245 245 245 247 246 240 240 247 252 255 257 256 256 257 257 256
323 333 330 309 282 273 275 277 275 272 268 267 266 260 256 254 252 250 249 248 248 248 249 249 248 246 243 246 250 251 250 249 249 251 250 248 247 247 247 248 248 248 248 250 251 248 246 246 245 246 247 244 238 238 243 248 252 254 253 253 256 257 257
321 324 335 333 304 276 271 281 292 291 282 278 281 277 268 262 259 257 255 255 255 255 254 252 248 246 244 244 246 248 247 246 246 249 251 249 248 248 248 249 249 249 249 250 252 251 250 248 247 247 247 242 237 238 241 244 247 251 253 252 252 252 251
310 305 313 323 332 321 281 272 280 284 282 279 281 284 282 276 266 259 258 261 262 263 263 257 251 249 247 244 242 241 241 241 242 247 252 251 249 249 249 250 250 251 251 250 251 252 252 251 248 248 247 242 238 239 241 243 245 249 252 251 249 248 245
304 303 305 309 320 331 326 309 289 281 278 276 278 281 286 286 275 264 262 261 260 261 263 259 253 252 250 248 244 237 237 239 241 247 251 252 250 250 250 251 250 250 251 251 251 251 251 252 250 249 248 243 240 240 242 244 245 247 250 250 248 246 243
306 307 309 306 303 306 313 321 313 305 294 276 274 280 283 281 274 268 264 260 254 249 249 251 252 251 249 250 249 244 242 243 243 247 252 253 252 252 251 251 251 250 250 252 252 251 250 250 250 250 248 243 241 243 245 246 246 247 250 251 249 246 244
314 308 306 300 292 289 291 295 296 306 309 290 272 272 280 279 275 272 267 264 259 249 242 244 249 250 246 246 249 249 247 246 245 247 251 253 254 254 252 253 254 251 249 250 251 251 249 248 248 248 247 242 242 246 247 247 249 250 251 251 249 247 246
313 307 303 295 283 277 279 283 281 285 299 297 276 258 265 276 279 280 274 268 264 255 246 243 245 248 246 244 246 247 246 246 247 248 251 253 254 255 255 255 256 255 251 250 250 250 250 248 245 245 244 242 243 246 247 248 249 251 252 251 249 247 247
323 318 314 307 293 278 274 278 279 280 287 293 281 257 256 269 277 282 280 273 266 255 244 240 243 247 247 242 242 243 243 244 247 250 252 254 254 255 255 256 257 257 255 252 251 251 250 249 246 244 242 242 243 245 247 248 249 250 252 252 250 248 247
333 329 322 318 308 291 280 278 276 273 275 283 281 265 264 275 278 278 278 277 272 258 244 240 242 246 247 241 239 241 243 246 249 251 252 253 253 254 255 257 258 258 256 254 253 252 250 249 248 247 244 243 243 244 246 247 249 251 252 252 251 249 248
332 332 324 321 321 307 296 288 280 271 266 269 274 274 275 276 275 276 276 275 272 261 252 248 246 247 247 243 240 242 245 250 254 256 256 255 254 254 256 257 258 258 256 255 254 252 251 250 249 249 248 245 244 244 245 246 248 250 251 252 251 250 248
333 339 337 346 355 339 318 304 295 283 270 267 270 273 274 271 269 271 271 273 272 264 258 255 254 253 250 248 248 248 249 252 256 259 261 260 258 255 255 258 259 258 257 256 254 252 251 251 251 251 251 250 248 246 245 245 247 249 250 250 250 250 248
332 340 343 358 10 355 334 320 314 298 281 275 273 269 270 272 272 270 267 268 269 265 259 255 255 257 255 253 254 255 256 257 257 259 261 263 262 258 256 258 261 260 259 256 254 252 250 251 251 251 251 251 250 250 249 246 246 248 249 249 249 249 248
332 337 341 349 356 349 334 328 329 316 293 279 276 273 272 272 274 276 272 267 264 263 262 257 254 257 258 257 257 258 259 260 260 261 261 262 263 261 258 260 263 263 261 257 255 254 252 251 251 251 251 250 250 250 250 250 250 250 250 250 250 249 250
352 351 350 350 350 344 334 334 341 334 315 293 281 278 276 273 274 278 278 273 269 267 266 265 262 260 260 261 262 261 261 259 259 259 260 261 262 262 262 263 266 267 264 260 258 256 254 254 253 252 251 251 250 249 249 250 252 252 253 253 252 252 253
359 358 358 359 359 358 352 348 343 330 316 303 287 278 278 279 281 282 282 280 276 272 269 269 269 267 264 263 264 265 265 263 262 261 260 260 260 261 262 263 265 268 266 263 261 259 257 257 257 256 254 252 251 250 248 248 249 251 252 252 252 254 256
349 350 352 356 359 1 359 357 356 341 323 311 297 288 290 293 291 284 280 280 280 277 272 270 269 269 267 266 267 271 272 270 268 265 262 259 258 258 259 260 263 265 265 264 263 261 260 261 260 258 256 255 254 253 251 249 249 250 250 251 252 254 257
345 343 345 349 356 1 1 6 13 6 350 326 297 280 281 297 295 283 272 270 276 278 275 273 275 274 270 267 268 270 270 270 269 266 262 259 256 255 256 259 262 263 262 263 264 262 261 262 260 258 258 259 259 257 255 253 252 252 251 251 251 254 257
353 348 347 352 4 11 12 16 17 10 2 351 325 297 285 293 297 287 276 271 272 274 274 280 292 292 284 278 273 268 266 267 269 268 265 261 258 256 254 254 257 259 260 262 264 263 262 262 260 258 260 263 262 261 260 259 256 254 253 251 251 253 256
4 2 5 12 11 6 6 10 10 4 359 358 352 338 320 308 298 288 287 287 282 275 270 268 275 278 277 276 273 269 267 267 270 272 270 266 262 259 255 253 254 257 259 261 263 263 263 262 261 260 262 265 264 262 263 264 262 258 255 253 252 252 253
2 0 6 16 7 354 350 355 356 351 345 345 348 345 336 327 314 298 294 297 293 282 269 260 259 260 260 261 260 260 262 264 267 271 271 269 265 260 257 256 257 258 259 260 261 262 260 260 262 264 264 266 265 263 265 268 268 265 262 259 257 255 254
354 352 351 353 354 350 345 340 338 337 335 333 330 326 322 321 322 317 307 302 300 297 289 281 273 265 263 264 262 261 262 261 261 263 265 267 266 262 258 258 259 260 260 258 257 258 256 255 258 262 263 264 265 264 265 267 269 271 270 267 265 262 259
349 347 344 335 333 340 341 339 342 346 344 336 323 313 309 309 312 313 311 305 301 299 295 292 287 279 273 271 269 268 269 268 264 259 254 254 258 260 261 261 261 263 263 260 256 255 252 249 252 258 261 264 267 268 268 269 272 274 273 270 269 266 262
347 346 343 334 328 331 336 343 353 357 355 351 345 336 324 315 312 312 311 308 305 301 297 293 289 283 277 275 274 273 271 270 268 261 254 249 248 252 255 259 263 267 269 265 259 254 251 248 250 256 261 266 271 272 272 274 275 273 270 268 268 267 264
351 348 346 341 334 330 333 339 348 355 356 354 354 354 352 345 334 325 320 318 318 317 312 304 296 288 279 273 272 272 270 268 267 265 259 254 252 251 251 252 257 262 265 264 259 254 250 249 251 257 261 264 268 270 271 273 273 269 266 265 264 264 263
5 356 349 343 335 331 333 337 343 352 357 357 357 357 358 356 351 342 336 334 334 334 331 325 315 304 292 281 273 271 268 265 264 264 262 258 257 257 255 253 252 251 250 251 251 250 247 246 248 253 257 259 262 264 266 268 268 267 265 262 259 259 261
Height
1518 1520 1523 1526 1527 1528 1528 1529 1530 1531 1533 1535 1537 1539 1540 1542 1542 1543 1543 1544 1545 1547 1549 1550 1551 1553 1555 1557 1559 1560 1561 1563 1564 1564 1565 1565 1565 1564 1565 1565 1565 1565 1564 1565 1566 1566 1566 1565 1565 1565 1565 1566 1567 1566 1565 1565 1565 1566 1566 1567 1567 1567 1567
1516 1517 1519 1521 1523 1525 1526 1527 1528 1529 1531 1532 1534 1537 1538 1539 1540 1541 1542 1542 1543 1543 1544 1546 1548 1549 1551 1553 1554 1556 1557 1558 1559 1560 1560 1561 1561 1561 1562 1562 1563 1563 1563 1563 1563 1563 1563 1563 1563 1562 1563 1564 1564 1563 1563 1563 1563 1563 1564 1564 1565 1565 1565
1514 1515 1516 1517 1519 1521 1523 1524 1525 1527 1528 1530 1532 1534 1535 1537 1538 1539 1539 1540 1541 1541 1541 1542 1544 1545 1547 1548 1550 1551 1552 1553 1553 1555 1556 1557 1558 1559 1560 1561 1562 1562 1561 1561 1560 1560 1561 1560 1560 1560 1561 1561 1560 1560 1560 1560 1561 1561 1561 1562 1563 1563 1563
1513 1513 1514 1514 1516 1518 1519 1521 1522 1524 1526 1528 1530 1531 1533 1534 1535 1536 1537 1537 1538 1539 1539 1539 1540 1541 1542 1544 1546 1547 1547 1548 1549 1551 1553 1555 1557 1558 1559 1559 1560 1560 1560 1559 1558 1559 1559 1559 1559 1559 1559 1559 1558 1558 1559 1559 1559 1559 1559 1560 1560 1560 1560
1510 1511 1512 1512 1514 1515 1516 1518 1519 1520 1522 1524 1526 1528 1529 1531 1532 1533 1534 1535 1535 1535 1536 1536 1537 1538 1539 1541 1542 1543 1544 1544 1546 1549 1551 1552 1554 1555 1555 1555 1556 1557 1557 1557 1557 1558 1558 1558 1559 1559 1559 1559 1557 1556 1557 1557 1557 1557 1557 1557 1558 1558 1558
1508 1508 1509 1510 1512 1512 1513 1515 1516 1517 1519 1521 1522 1524 1526 1528 1530 1531 1532 1532 1532 1532 1532 1533 1536 1537 1538 1538 1539 1540 1541 1543 1545 1546 1547 1548 1549 1549 1550 1551 1552 1552 1553 1554 1556 1556 1557 1558 1558 1557 1558 1558 1556 1556 1556 1556 1555 1555 1554 1555 1555 1556 1556
1506 1505 1506 1507 1509 1510 1511 1512 1513 1515 1516 1518 1520 1522 1524 1526 1527 1528 1529 1529 1530 1529 1529 1532 1534 1534 1535 1535 1536 1538 1539 1541 1542 1542 1543 1543 1544 1545 1546 1547 1547 1548 1550 1552 1553 1554 1555 1555 1555 1555 1557 1557 1556 1556 1555 1554 1554 1553 1551 1552 1553 1553 1554
1504 1504 1503 1504 1506 1507 1508 1509 1510 1512 1514 1516 1518 1520 1522 1524 1525 1526 1526 1527 1527 1527 1527 1529 1530 1530 1532 1533 1534 1535 1536 1538 1539 1539 1539 1539 1539 1540 1541 1542 1544 1545 1547 1549 1550 1551 1552 1552 1553 1554 1555 1555 1555 1554 1553 1553 1552 1550 1549 1550 1551 1551 1551
1503 1502 1502 1502 1503 1504 1505 1506 1508 1510 1512 1514 1515 1517 1519 1520 1522 1522 1523 1524 1525 1525 1525 1526 1528 1530 1532 1532 1532 1533 1533 1534 1535 1535 1536 1536 1536 1537 1537 1538 1540 1541 1543 1546 1547 1548 1549 1549 1550 1552 1553 1553 1553 1552 1551 1550 1548 1547 1547 1548 1548 1548 1549
1502 1501 1501 1501 1502 1502 1503 1504 1505 1507 1509 1511 1513 1514 1515 1517 1518 1519 1520 1520 1521 1522 1523 1525 1527 1530 1531 1530 1530 1531 1531 1532 1532 1532 1533 1534 1534 1535 1535 1535 1536 1537 1539 1542 1544 1545 1546 1547 1548 1548 1549 1550 1551 1550 1549 1547 1545 1544 1545 1546 1546 1546 1547
1500 1500 1500 1500 1500 1500 1501 1501 1503 1504 1505 1507 1509 1511 1512 1513 1514 1515 1516 1517 1517 1518 1520 1522 1524 1527 1528 1526 1526 1527 1528 1530 1530 1529 1529 1530 1531 1532 1532 1533 1534 1534 1536 1538 1540 1542 1543 1544 1545 1545 1546 1547 1548 1548 1547 1545 1543 1542 1543 1544 1543 1544 1545
1498 1498 1498 1498 1498 1498 1498 1499 1500 1501 1502 1503 1505 1506 1508 1509 1510 1511 1512 1513 1514 1515 1516 1518 1519 1522 1522 1521 1521 1522 1525 1527 1527 1526 1526 1526 1527 1529 1529 1530 1530 1531 1533 1535 1537 1539 1540 1541 1542 1542 1543 1544 1545 1545 1545 1544 1542 1539 1540 1541 1541 1542 1543
1498 1497 1497 1496 1496 1495 1496 1496 1497 1498 1499 1500 1501 1503 1504 1506 1507 1508 1509 1509 1510 1511 1512 1513 1515 1516 1516 1515 1515 1517 1520 1522 1523 1522 1523 1523 1524 1525 1525 1526 1527 1528 1530 1532 1533 1535 1536 1538 1539 1539 1540 1541 1541 1542 1542 1542 1540 1536 1537 1539 1539 1540 1541
1497 1496 1496 1495 1494 1494 1494 1495 1495 1496 1497 1498 1499 1500 1501 1502 1503 1504 1505 1506 1507 1508 1509 1509 1510 1510 1509 1509 1510 1512 1515 1517 1518 1518 1519 1520 1521 1521 1522 1523 1523 1525 1527 1528 1529 1531 1533 1534 1536 1536 1537 1537 1538 1538 1539 1539 1537 1534 1534 1536 1537 1538 1539
1495 1495 1495 1494 1494 1493 1493 1493 1493 1494 1494 1495 1496 1497 1498 1499 1500 1501 1501 1503 1505 1506 1506 1506 1506 1506 1505 1505 1505 1507 1510 1511 1512 1514 1515 1515 1516 1517 1518 1519 1520 1522 1524 1525 1526 1527 1529 1530 1532 1532 1533 1534 1534 1535 1536 1536 1534 1533 1532 1533 1534 1535 1536
1494 1493 1493 1493 1493 1492 1492 1492 1492 1492 1492 1493 1493 1494 1495 1495 1496 1496 1497 1499 1501 1502 1503 1503 1502 1502 1502 1502 1503 1504 1506 1507 1508 1510 1510 1511 1512 1513 1514 1516 1517 1519 1521 1522 1522 1524 1525 1526 1527 1528 1529 1530 1531 1531 1533 1533 1533 1531 1530 1530 1532 1533 1533
1492 1492 1491 1492 1491 1491 1491 1491 1490 1490 1490 1491 1491 1491 1492 1492 1492 1492 1493 1494 1495 1497 1498 1499 1499 1498 1499 1500 1501 1502 1503 1504 1505 1505 1506 1506 1507 1508 1510 1511 1513 1515 1518 1519 1519 1521 1521 1522 1523 1523 1524 1526 1527 1528 1530 1531 1531 1530 1529 1528 1529 1530 1530
1491 1490 1489 1490 1490 1489 1489 1489 1489 1489 1489 1489 1489 1489 1489 1490 1490 1490 1490 1490 1490 1491 1493 1495 1495 1495 1495 1496 1498 1499 1500 1501 1501 1502 1502 1502 1503 1504 1505 1506 1508 1511 1514 1515 1516 1517 1518 1518 1519 1519 1520 1522 1523 1525 1527 1528 1528 1529 1528 1526 1526 1527 1528
1489 1488 1488 1488 1487 1487 1487 1487 1487 1487 1487 1486 1486 1487 1487 1487 1487 1487 1487 1487 1486 1487 1489 1491 1492 1492 1492 1493 1493 1494 1495 1496 1497 1497 1498 1498 1499 1500 1501 1502 1503 1506 1509 1510 1511 1513 1514 1515 1515 1516 1516 1517 1519 1521 1523 1524 1525 1526 1526 1525 1524 1525 1525
1488 1487 1486 1486 1485 1485 1485 1485 1485 1485 1485 1484 1484 1484 1484 1484 1484 1484 1484 1483 1483 1483 1485 1486 1487 1488 1489 1489 1490 1490 1490 1492 1493 1493 1493 1494 1495 1496 1497 1497 1499 1501 1503 1505 1506 1508 1510 1512 1512 1512 1513 1514 1516 1518 1519 1520 1522 1523 1523 1523 1522 1522 1522
1487 1486 1485 1484 1484 1483 1483 1483 1482 1482 1482 1482 1482 1482 1482 1482 1482 1481 1481 1481 1481 1481 1481 1482 1483 1484 1485 1486 1486 1486 1487 1488 1489 1489 1490 1491 1492 1492 1493 1494 1494 1496 1498 1499 1501 1504 1506 1508 1509 1509 1510 1511 1513 1514 1515 1516 1518 1519 1519 1520 1519 1519 1519
1486 1485 1484 1483 1482 1482 1481 1481 1480 1480 1480 1479 1479 1480 1479 1479 1479 1479 1479 1478 1478 1478 1478 1478 1479 1480 1481 1482 1482 1483 1484 1485 1486 1487 1487 1488 1489 1490 1490 1490 1490 1492 1493 1494 1496 1499 1501 1503 1505 1505 1506 1508 1509 1510 1511 1512 1513 1514 1515 1516 1516 1516 1517
1486 1485 1483 1482 1481 1481 1480 1479 1478 1478 1477 1477 1477 1477 1477 1477 1477 1476 1476 1475 1475 1475 1475 1475 1476 1477 1478 1478 1479 1480 1480 1482 1483 1484 1484 1484 1485 1486 1486 1486 1487 1488 1489 1490 1491 1493 1496 1498 1500 1501 1502 1504 1505 1506 1507 1508 1509 1510 1511 1512 1512 1513 1513
1485 1483 1482 1481 1480 1480 1479 1478 1477 1476 1475 1475 1475 1474 1474 1474 1474 1474 1473 1473 1472 1472 1472 1472 1473 1473 1474 1476 1476 1476 1477 1477 1478 1479 1479 1480 1481 1482 1482 1483 1483 1484 1485 1485 1486 1488 1490 1493 1494 1496 1497 1499 1501 1502 1503 1504 1504 1505 1506 1507 1508 1509 1509
1483 1482 1481 1480 1479 1479 1478 1477 1476 1475 1474 1473 1473 1472 1472 1471 1471 1471 1471 1470 1470 1469 1469 1469 1470 1470 1471 1472 1473 1473 1473 1474 1473 1473 1474 1474 1475 1477 1478 1479 1479 1480 1480 1481 1482 1483 1485 1487 1489 1491 1492 1494 1496 1497 1499 1500 1500 1501 1502 1502 1503 1504 1504
1482 1481 1480 1479 1479 1478 1477 1477 1476 1474 1473 1472 1471 1470 1470 1469 1469 1468 1468 1467 1467 1467 1466 1466 1467 1467 1467 1468 1469 1470 1470 1470 1470 1469 1469 1470 1471 1472 1474 1475 1476 1476 1476 1477 1478 1479 1480 1482 1484 1485 1487 1489 1490 1492 1493 1494 1496 1497 1498 1498 1498 1498 1499
1481 1480 1479 1479 1478 1477 1477 1476 1474 1473 1472 1470 1469 1468 1468 1467 1467 1466 1466 1465 1464 1463 1463 1463 1464 1464 1464 1465 1466 1466 1466 1466 1466 1465 1466 1466 1466 1467 1469 1470 1471 1472 1473 1473 1474 1475 1476 1477 1478 1480 1481 1482 1484 1486 1488 1489 1490 1491 1492 1493 1493 1493 1495
1480 1479 1479 1478 1478 1477 1476 1474 1472 1471 1470 1469 1467 1466 1466 1465 1465 1464 1464 1463 1462 1461 1460 1460 1460 1460 1461 1461 1462 1462 1461 1461 1461 1461 1461 1461 1461 1462 1463 1465 1467 1469 1470 1470 1470 1470 1472 1473 1474 1474 1475 1476 1478 1480 1481 1483 1484 1486 1486 1487 1488 1489 1491
1479 1478 1478 1477 1476 1475 1474 1472 1471 1469 1468 1467 1466 1465 1464 1463 1462 1461 1461 1460 1459 1458 1457 1458 1457 1457 1457 1457 1457 1457 1456 1456 1456 1456 1455 1455 1456 1457 1459 1461 1462 1463 1465 1465 1465 1466 1468 1469 1469 1469 1469 1470 1472 1473 1474 1476 1479 1480 1481 1482 1484 1485 1486
1478 1477 1477 1476 1475 1474 1472 1471 1470 1468 1467 1466 1465 1464 1463 1461 1460 1459 1458 1457 1456 1455 1455 1455 1455 1454 1453 1453 1453 1452 1452 1451 1451 1451 1451 1451 1451 1452 1454 1455 1456 1457 1457 1457 1459 1462 1464 1464 1464 1464 1464 1465 1466 1467 1468 1471 1473 1474 1475 1477 1479 1480 1482
1478 1477 1476 1475 1473 1472 1471 1470 1469 1467 1466 1465 1464 1462 1461 1460 1459 1458 1457 1456 1454 1453 1453 1452 1450 1449 1448 1448 1447 1447 1447 1446 1446 1445 1445 1446 1446 1447 1448 1449 1450 1451 1450 1451 1454 1457 1459 1459 1459 1460 1460 1460 1461 1461 1462 1465 1467 1468 1470 1471 1472 1474 1477
1477 1476 1475 1474 1472 1471 1470 1469 1468 1467 1466 1464 1463 1462 1460 1459 1458 1457 1456 1454 1453 1451 1450 1449 1448 1446 1445 1444 1443 1443 1442 1442 1441 1441 1441 1440 1440 1441 1442 1443 1445 1446 1446 1446 1448 1451 1453 1454 1454 1455 1455 1455 1455 1455 1458 1460 1461 1462 1464 1465 1466 1468 1469
1476 1475 1474 1473 1472 1470 1469 1468 1467 1465 1464 1463 1462 1461 1459 1458 1457 1455 1454 1453 1451 1449 1448 1447 1446 1445 1444 1442 1441 1441 1439 1438 1437 1437 1437 1437 1436 1435 1436 1437 1438 1440 1441 1442 1443 1444 1446 1447 1448 1448 1450 1449 1449 1451 1455 1455 1455 1457 1458 1459 1460 1462 1463
1476 1475 1474 1473 1471 1470 1469 1467 1466 1464 1463 1461 1460 1459 1458 1456 1455 1454 1453 1451 1450 1449 1447 1445 1444 1443 1442 1440 1439 1438 1437 1436 1434 1433 1432 1432 1431 1431 1431 1432 1433 1434 1435 1436 1437 1438 1439 1440 1440 1441 1443 1443 1444 1448 1450 1450 1450 1452 1452 1453 1455 1457 1457
1476 1475 1474 1472 1471 1470 1468 1467 1465 1464 1462 1460 1458 1457 1456 1454 1453 1452 1450 1449 1448 1447 1445 1444 1443 1441 1440 1439 1437 1436 1435 1434 1432 1430 1429 1427 1427 1426 1426 1427 1428 1429 1430 1430 1431 1432 1433 1433 1434 1434 1436 1438 1440 1443 1444 1444 1445 1446 1446 1447 1449 1451 1452
1476 1474 1473 1472 1471 1469 1468 1467 1465 1463 1461 1459 1457 1455 1454 1452 1451 1449 1448 1447 1446 1444 1443 1442 1440 1439 1438 1436 1435 1434 1433 1431 1429 1427 1425 1424 1423 1422 1421 1421 1421 1423 1424 1424 1425 1425 1425 1426 1427 1427 1430 1433 1435 1437 1438 1438 1438 1439 1440 1442 1443 1444 1446
1476 1474 1473 1471 1470 1468 1467 1466 1464 1462 1460 1458 1456 1454 1452 1451 1449 1447 1445 1444 1443 1442 1440 1439 1437 1436 1434 1433 1432 1430 1429 1428 1427 1424 1422 1420 1420 1419 1418 1417 1416 1416 1416 1416 1417 1418 1418 1419 1420 1421 1424 1427 1429 1431 1432 1432 1432 1433 1435 1436 1438 1438 1440